| time (UTC) | temp C | wind direction | speed KPH | gust KPH | rain 1hr cm | rain 24hr cm | rain mn cm | humidity % | barometer mb |
| 20260906182036 | 39 | 51 | 1.6 | 9.7 | 0.00 | 0.00 | 0.00 | 28 | 1015.9 |
| 20260906181039 | 38 | 119 | 3.2 | 11.3 | 0.00 | 0.00 | 0.00 | 27 | 1016.2 |
| 20260906180030 | 38 | 126 | 3.2 | 8.0 | 0.00 | 0.00 | 0.00 | 29 | 1016.3 |
| 20260906175042 | 38 | 66 | 0.0 | 6.4 | 0.00 | 0.00 | 0.00 | 29 | 1016.6 |
| 20260906174042 | 38 | 115 | 1.6 | 6.4 | 0.00 | 0.00 | 0.00 | 28 | 1016.8 |
| 20260906173118 | 39 | 90 | 1.6 | 8.0 | 0.00 | 0.00 | 0.00 | 28 | 1017.0 |
| 20260906172056 | 39 | 247 | 4.8 | 9.7 | 0.00 | 0.00 | 0.00 | 28 | 1017.3 |
| 20260906171024 | 38 | 45 | 1.6 | 8.0 | 0.00 | 0.00 | 0.00 | 30 | 1017.4 |
| 20260906170103 | 38 | 191 | 3.2 | 8.0 | 0.00 | 0.00 | 0.00 | 29 | 1017.5 |
| 20260906165042 | 37 | 243 | 1.6 | 8.0 | 0.00 | 0.00 | 0.00 | 32 | 1017.6 |
| 20260906164048 | 38 | 72 | 1.6 | 8.0 | 0.00 | 0.00 | 0.00 | 31 | 1017.7 |
| 20260906163027 | 37 | 134 | 3.2 | 9.7 | 0.00 | 0.00 | 0.00 | 32 | 1017.8 |
| 20260906162049 | 37 | 146 | 3.2 | 8.0 | 0.00 | 0.00 | 0.00 | 35 | 1017.9 |
| 20260906161058 | 37 | 40 | 1.6 | 6.4 | 0.00 | 0.00 | 0.00 | 36 | 1018.0 |
| 20260906160037 | 36 | 44 | 0.0 | 6.4 | 0.00 | 0.00 | 0.00 | 38 | 1018.0 |
| 20260906155046 | 35 | 278 | 4.8 | 6.4 | 0.00 | 0.00 | 0.00 | 41 | 1018.0 |
| 20260906154020 | 35 | 120 | 0.0 | 3.2 | 0.00 | 0.00 | 0.00 | 43 | 1017.9 |
| 20260906153054 | 35 | 20 | 1.6 | 6.4 | 0.00 | 0.00 | 0.00 | 44 | 1017.9 |
| 20260906152036 | 34 | 99 | 1.6 | 3.2 | 0.00 | 0.00 | 0.00 | 45 | 1017.9 |
| 20260906151039 | 33 | 234 | 1.6 | 6.4 | 0.00 | 0.00 | 0.00 | 45 | 1017.8 |
| 20260906150048 | 33 | 234 | 0.0 | 1.6 | 0.00 | 0.00 | 0.00 | 47 | 1017.9 |
| 20260906145056 | 32 | 234 | 1.6 | 6.4 | 0.00 | 0.00 | 0.00 | 50 | 1018.0 |
| 20260906144043 | 32 | 184 | 0.0 | 6.4 | 0.00 | 0.00 | 0.00 | 53 | 1017.9 |
| 20260906143041 | 31 | 184 | 1.6 | 6.4 | 0.00 | 0.00 | 0.00 | 54 | 1017.8 |
| 20260906142035 | 30 | 184 | 0.0 | 3.2 | 0.00 | 0.00 | 0.00 | 55 | 1017.7 |
| 20260906141035 | 29 | 184 | 0.0 | 4.8 | 0.00 | 0.00 | 0.00 | 59 | 1017.7 |
| 20260906140053 | 28 | 184 | 0.0 | 6.4 | 0.00 | 0.00 | 0.00 | 62 | 1017.7 |
| 20260906135053 | 27 | 209 | 1.6 | 8.0 | 0.00 | 0.00 | 0.00 | 66 | 1017.6 |
| 20260906134028 | 26 | 208 | 0.0 | 3.2 | 0.00 | 0.00 | 0.00 | 70 | 1017.5 |
| 20260906133048 | 25 | 208 | 0.0 | 1.6 | 0.00 | 0.00 | 0.00 | 73 | 1017.5 |
| 20260906132043 | 24 | 208 | 1.6 | 3.2 | 0.00 | 0.00 | 0.00 | 76 | 1017.3 |
| 20260906131043 | 23 | 208 | 0.0 | 3.2 | 0.00 | 0.00 | 0.00 | 77 | 1017.3 |
| 20260906130107 | 23 | 208 | 0.0 | 3.2 | 0.00 | 0.00 | 0.00 | 78 | 1017.2 |
| 20260906125054 | 23 | 301 | 0.0 | 3.2 | 0.00 | 0.00 | 0.00 | 79 | 1017.1 |
| 20260906124107 | 23 | 136 | 0.0 | 0.0 | 0.00 | 0.00 | 0.00 | 80 | 1017.0 |
| 20260906123043 | 23 | 136 | 0.0 | 0.0 | 0.00 | 0.00 | 0.00 | 81 | 1016.9 |
| 20260906122032 | 23 | 136 | 0.0 | 3.2 | 0.00 | 0.00 | 0.00 | 81 | 1016.9 |
| 20260906121042 | 23 | 136 | 0.0 | 1.6 | 0.00 | 0.00 | 0.00 | 81 | 1016.8 |
| 20260906120036 | 23 | 136 | 1.6 | 3.2 | 0.00 | 0.00 | 0.00 | 80 | 1016.9 |
| 20260906115037 | 23 | 136 | 0.0 | 3.2 | 0.00 | 0.00 | 0.00 | 80 | 1016.8 |
| 20260906114045 | 23 | 136 | 0.0 | 1.6 | 0.00 | 0.00 | 0.00 | 80 | 1016.7 |
| 20260906113047 | 23 | 136 | 0.0 | 3.2 | 0.00 | 0.00 | 0.00 | 80 | 1016.7 |
| 20260906112044 | 23 | 136 | 0.0 | 3.2 | 0.00 | 0.00 | 0.00 | 80 | 1016.5 |
| 20260906111033 | 23 | 136 | 0.0 | 0.0 | 0.00 | 0.00 | 0.00 | 80 | 1016.5 |
| 20260906110028 | 23 | 136 | 0.0 | 0.0 | 0.00 | 0.00 | 0.00 | 80 | 1016.5 |
| 20260906105034 | 23 | 136 | 0.0 | 0.0 | 0.00 | 0.00 | 0.00 | 79 | 1016.5 |
| 20260906104024 | 23 | 136 | 0.0 | 1.6 | 0.00 | 0.00 | 0.00 | 79 | 1016.4 |
| 20260906103058 | 23 | 136 | 0.0 | 0.0 | 0.00 | 0.00 | 0.00 | 78 | 1016.4 |
| 20260906102036 | 23 | 136 | 0.0 | 0.0 | 0.00 | 0.00 | 0.00 | 78 | 1016.3 |
| 20260906101037 | 23 | 136 | 0.0 | 1.6 | 0.00 | 0.00 | 0.00 | 78 | 1016.2 |
| 20260906100028 | 23 | 136 | 0.0 | 1.6 | 0.00 | 0.00 | 0.00 | 78 | 1016.2 |
| 20260906095033 | 23 | 136 | 0.0 | 0.0 | 0.00 | 0.00 | 0.00 | 78 | 1016.1 |
| 20260906094056 | 23 | 136 | 0.0 | 0.0 | 0.00 | 0.00 | 0.00 | 77 | 1016.0 |
| 20260906093028 | 23 | 136 | 0.0 | 1.6 | 0.00 | 0.00 | 0.00 | 77 | 1015.9 |
| 20260906092112 | 23 | 136 | 0.0 | 0.0 | 0.00 | 0.00 | 0.00 | 77 | 1015.9 |
| 20260906091037 | 24 | 136 | 0.0 | 0.0 | 0.00 | 0.00 | 0.00 | 76 | 1015.9 |
| 20260906090044 | 24 | 136 | 0.0 | 0.0 | 0.00 | 0.00 | 0.00 | 76 | 1015.9 |
| 20260906085122 | 24 | 136 | 0.0 | 0.0 | 0.00 | 0.00 | 0.00 | 75 | 1015.7 |
| 20260906084051 | 25 | 136 | 0.0 | 0.0 | 0.00 | 0.00 | 0.00 | 75 | 1015.7 |
| 20260906083030 | 25 | 136 | 0.0 | 1.6 | 0.00 | 0.00 | 0.00 | 75 | 1015.6 |
| 20260906082106 | 25 | 136 | 1.6 | 3.2 | 0.00 | 0.00 | 0.00 | 74 | 1015.6 |
| 20260906081022 | 25 | 136 | 1.6 | 3.2 | 0.00 | 0.00 | 0.00 | 73 | 1015.6 |
| 20260906075054 | 25 | 136 | 0.0 | 1.6 | 0.00 | 0.00 | 0.00 | 73 | 1015.6 |
| 20260906074116 | 25 | 136 | 1.6 | 3.2 | 0.00 | 0.00 | 0.00 | 73 | 1015.6 |
| 20260906073052 | 25 | 136 | 1.6 | 1.6 | 0.00 | 0.00 | 0.00 | 73 | 1015.7 |
| 20260906072047 | 25 | 136 | 1.6 | 6.4 | 0.00 | 0.00 | 0.00 | 73 | 1015.8 |
| 20260906071035 | 25 | 108 | 0.0 | 3.2 | 0.00 | 0.00 | 0.00 | 73 | 1015.8 |
| 20260906070109 | 25 | 33 | 1.6 | 1.6 | 0.00 | 0.00 | 0.00 | 73 | 1015.9 |
| 20260906065046 | 25 | 33 | 0.0 | 0.0 | 0.00 | 0.00 | 0.00 | 73 | 1015.9 |
| 20260906064111 | 25 | 33 | 0.0 | 0.0 | 0.00 | 0.00 | 0.00 | 72 | 1015.9 |
| 20260906063112 | 26 | 33 | 0.0 | 0.0 | 0.00 | 0.00 | 0.00 | 72 | 1016.0 |
| 20260906062057 | 26 | 33 | 0.0 | 0.0 | 0.00 | 0.00 | 0.00 | 70 | 1016.0 |
| 20260906061126 | 26 | 33 | 0.0 | 1.6 | 0.00 | 0.00 | 0.00 | 70 | 1016.1 |
| 20260906060040 | 26 | 33 | 1.6 | 3.2 | 0.00 | 0.00 | 0.00 | 69 | 1016.1 |
| 20260906055053 | 26 | 33 | 0.0 | 0.0 | 0.00 | 0.00 | 0.00 | 68 | 1016.0 |
| 20260906054034 | 26 | 33 | 0.0 | 1.6 | 0.00 | 0.00 | 0.00 | 68 | 1016.1 |
| 20260906053034 | 26 | 33 | 0.0 | 1.6 | 0.00 | 0.00 | 0.00 | 67 | 1016.1 |
| 20260906052037 | 26 | 33 | 0.0 | 1.6 | 0.00 | 0.00 | 0.00 | 68 | 1016.1 |
| 20260906051044 | 26 | 33 | 0.0 | 0.0 | 0.00 | 0.00 | 0.00 | 69 | 1016.1 |
| 20260906050037 | 26 | 33 | 0.0 | 0.0 | 0.00 | 0.00 | 0.00 | 68 | 1016.0 |
| 20260906045051 | 27 | 33 | 0.0 | 0.0 | 0.00 | 0.00 | 0.00 | 68 | 1016.1 |
| 20260906044045 | 27 | 33 | 1.6 | 9.7 | 0.00 | 0.00 | 0.00 | 68 | 1016.0 |
| 20260906043029 | 27 | 126 | 0.0 | 0.0 | 0.00 | 0.00 | 0.00 | 67 | 1015.9 |
| 20260906042035 | 27 | 126 | 0.0 | 0.0 | 0.00 | 0.00 | 0.00 | 65 | 1015.9 |
| 20260906041025 | 27 | 126 | 0.0 | 0.0 | 0.00 | 0.00 | 0.00 | 65 | 1016.0 |
| 20260906040140 | 27 | 126 | 0.0 | 0.0 | 0.00 | 0.00 | 0.00 | 65 | 1016.0 |
| 20260906035042 | 27 | 126 | 0.0 | 0.0 | 0.00 | 0.00 | 0.00 | 63 | 1016.0 |
| 20260906034051 | 27 | 126 | 0.0 | 0.0 | 0.00 | 0.00 | 0.00 | 63 | 1015.9 |
| 20260906033105 | 28 | 126 | 0.0 | 0.0 | 0.00 | 0.00 | 0.00 | 63 | 1015.7 |
| 20260906032051 | 28 | 126 | 0.0 | 0.0 | 0.00 | 0.00 | 0.00 | 62 | 1015.6 |
| 20260906031047 | 28 | 126 | 0.0 | 0.0 | 0.00 | 0.00 | 0.00 | 62 | 1015.7 |
| 20260906030046 | 28 | 126 | 0.0 | 6.4 | 0.00 | 0.00 | 0.00 | 61 | 1015.7 |
| 20260906025031 | 28 | 124 | 1.6 | 6.4 | 0.00 | 0.00 | 0.00 | 61 | 1015.4 |
| 20260906024052 | 28 | 273 | 0.0 | 0.0 | 0.00 | 0.00 | 0.00 | 60 | 1015.4 |
| 20260906023036 | 28 | 273 | 0.0 | 0.0 | 0.00 | 0.00 | 0.00 | 59 | 1015.2 |
| 20260906022022 | 29 | 273 | 0.0 | 0.0 | 0.00 | 0.00 | 0.00 | 59 | 1015.2 |
| 20260906021027 | 29 | 273 | 0.0 | 0.0 | 0.00 | 0.00 | 0.00 | 55 | 1015.0 |
| 20260906020115 | 30 | 273 | 0.0 | 0.0 | 0.00 | 0.00 | 0.00 | 57 | 1014.9 |
| 20260906015046 | 30 | 273 | 0.0 | 0.0 | 0.00 | 0.00 | 0.00 | 54 | 1014.8 |
| 20260906014043 | 30 | 273 | 0.0 | 0.0 | 0.00 | 0.00 | 0.00 | 53 | 1014.8 |
| 20260906013027 | 31 | 273 | 0.0 | 0.0 | 0.00 | 0.00 | 0.00 | 54 | 1014.7 |
| 20260906012027 | 31 | 273 | 0.0 | 0.0 | 0.00 | 0.00 | 0.00 | 52 | 1014.6 |
| 20260906011042 | 31 | 273 | 0.0 | 0.0 | 0.00 | 0.00 | 0.00 | 50 | 1014.5 |
| 20260906010033 | 32 | 273 | 0.0 | 0.0 | 0.00 | 0.00 | 0.00 | 52 | 1014.4 |
| 20260906005055 | 32 | 273 | 0.0 | 0.0 | 0.00 | 0.00 | 0.00 | 48 | 1014.3 |
| 20260906004048 | 32 | 273 | 0.0 | 0.0 | 0.00 | 0.00 | 0.00 | 47 | 1014.3 |
| 20260906003048 | 33 | 273 | 0.0 | 0.0 | 0.00 | 0.00 | 0.00 | 44 | 1014.3 |
| 20260906002023 | 35 | 273 | 0.0 | 0.0 | 0.00 | 0.00 | 0.00 | 39 | 1014.3 |
| 20260906001032 | 35 | 273 | 0.0 | 1.6 | 0.00 | 0.00 | 0.00 | 37 | 1014.3 |
| 20260906000039 | 36 | 74 | 0.0 | 6.4 | 0.00 | 0.00 | 0.00 | 34 | 1014.3 |
| 20260905235025 | 36 | 263 | 0.0 | 0.0 | 0.00 | 0.00 | 0.00 | 34 | 1014.4 |
| 20260905234050 | 37 | 263 | 0.0 | 1.6 | 0.00 | 0.00 | 0.00 | 34 | 1014.4 |
| 20260905233036 | 37 | 263 | 0.0 | 1.6 | 0.00 | 0.00 | 0.00 | 30 | 1014.3 |
| 20260905232038 | 37 | 263 | 0.0 | 3.2 | 0.00 | 0.00 | 0.00 | 31 | 1014.2 |
| 20260905231053 | 37 | 263 | 1.6 | 6.4 | 0.00 | 0.00 | 0.00 | 28 | 1014.2 |
| 20260905230107 | 37 | 130 | 3.2 | 4.8 | 0.00 | 0.00 | 0.00 | 28 | 1014.2 |
| 20260905225050 | 37 | 128 | 1.6 | 6.4 | 0.00 | 0.00 | 0.00 | 29 | 1014.3 |
| 20260905224025 | 38 | 261 | 0.0 | 3.2 | 0.00 | 0.00 | 0.00 | 28 | 1014.3 |
| 20260905223057 | 38 | 261 | 1.6 | 6.4 | 0.00 | 0.00 | 0.00 | 28 | 1014.3 |
| 20260905222031 | 38 | 121 | 1.6 | 12.9 | 0.00 | 0.00 | 0.00 | 28 | 1014.3 |
| 20260905221023 | 38 | 211 | 1.6 | 8.0 | 0.00 | 0.00 | 0.00 | 28 | 1014.4 |
| 20260905220050 | 38 | 294 | 0.0 | 6.4 | 0.00 | 0.00 | 0.00 | 28 | 1014.4 |
| 20260905215058 | 38 | 23 | 1.6 | 6.4 | 0.00 | 0.00 | 0.00 | 28 | 1014.5 |
| 20260905214047 | 38 | 14 | 1.6 | 6.4 | 0.00 | 0.00 | 0.00 | 28 | 1014.7 |
| 20260905213042 | 37 | 124 | 4.8 | 8.0 | 0.00 | 0.00 | 0.00 | 29 | 1014.6 |
| 20260905212042 | 37 | 252 | 3.2 | 9.7 | 0.00 | 0.00 | 0.00 | 29 | 1014.9 |
| 20260905211056 | 37 | 138 | 1.6 | 6.4 | 0.00 | 0.00 | 0.00 | 28 | 1014.9 |
| 20260905210037 | 37 | 121 | 4.8 | 11.3 | 0.00 | 0.00 | 0.00 | 29 | 1015.1 |
| 20260905205033 | 37 | 249 | 4.8 | 11.3 | 0.00 | 0.00 | 0.00 | 29 | 1015.2 |
| 20260905204049 | 37 | 162 | 4.8 | 9.7 | 0.00 | 0.00 | 0.00 | 29 | 1015.4 |
| 20260905203044 | 38 | 115 | 4.8 | 12.9 | 0.00 | 0.00 | 0.00 | 28 | 1015.6 |
| 20260905202058 | 38 | 150 | 4.8 | 9.7 | 0.00 | 0.00 | 0.00 | 28 | 1015.8 |
| 20260905201025 | 38 | 138 | 4.8 | 12.9 | 0.00 | 0.00 | 0.00 | 27 | 1016.0 |
| 20260905200037 | 38 | 227 | 3.2 | 9.7 | 0.00 | 0.00 | 0.00 | 29 | 1016.0 |
| 20260905195049 | 38 | 243 | 1.6 | 8.0 | 0.00 | 0.00 | 0.00 | 28 | 1016.1 |
| 20260905194038 | 39 | 1 | 3.2 | 9.7 | 0.00 | 0.00 | 0.00 | 29 | 1016.2 |
| 20260905193048 | 38 | 64 | 6.4 | 12.9 | 0.00 | 0.00 | 0.00 | 30 | 1016.3 |
| 20260905192053 | 38 | 130 | 3.2 | 8.0 | 0.00 | 0.00 | 0.00 | 30 | 1016.4 |
| 20260905191030 | 38 | 315 | 3.2 | 9.7 | 0.00 | 0.00 | 0.00 | 30 | 1016.7 |
| 20260905190106 | 38 | 283 | 4.8 | 11.3 | 0.00 | 0.00 | 0.00 | 29 | 1016.7 |
| 20260905185021 | 38 | 104 | 1.6 | 12.9 | 0.00 | 0.00 | 0.00 | 31 | 1016.9 |
| 20260905184024 | 38 | 65 | 3.2 | 9.7 | 0.00 | 0.00 | 0.00 | 31 | 1017.0 |
| 20260905183030 | 38 | 261 | 1.6 | 9.7 | 0.00 | 0.00 | 0.00 | 30 | 1017.3 |